Flag for Canada Weather past 2 weeks in Halifax, Nova Scotia, Canada

Now
63 °F

Sprinkles. Fog.


Feels Like: 63 °F
Forecast: 62 / 73 °F
Wind: 9 mph from North

Location: Halifax International Airport

Current Time: Jul 25, 2014 at 4:56:57 AM

Latest Report: Jul 25, 2014 at 4:00 AM


Visibility: 2 mi

Pressure: 29.77 "Hg

Humidity: 100%

Dew point: 63 °F

Location of HalifaxLocation

Historic Weather in Halifax — Graph

°F

Halifax temperature yesterday

Maximum temperature yesterday: 75 °F (at 1:00 PM)
Minimum temperature yesterday: 61 °F (at 4:00 AM)
Average temperature yesterday: 68 °F

Past Weeks' High & Low Weather Summary

 TemperatureHumidityPressure
High82 °F (Jul 12, 3:00 PM)100% (Jul 10, 4:00 AM)30.28 "Hg (Jul 10, 4:00 AM)
Low57 °F (Jul 13, 6:00 AM)32% (Jul 12, 4:00 PM)29.75 "Hg (Jul 24, 7:00 PM)
Average67 °F80%30.05 "Hg
* Reported Jul 10 3:00 AM — Jul 25 3:00 AM, Halifax, Weather by CustomWeather, © 2014

Note: Actual official high and low records may vary slightly from our data, if they occured in-between our weather recording intervals... More about our weather records

Advertising

Halifax weather history for previous 24 hours

 ConditionsComfort  
Time TempWeatherWind HumidityBarometerVisibility
3:00 AM
Jul 25
63 °FSprinkles. Fog.8 mph100%29.78 "Hg3 mi
2:00 AM63 °FSprinkles. Fog.12 mph100%29.78 "Hg1 mi
1:47 AM64 °FSprinkles. Fog.8 mph94%29.78 "Hg1 mi
1:00 AM64 °FFog.7 mph100%29.78 "Hg1 mi
12:00 AM64 °FFog.6 mph100%29.78 "Hg1 mi
11:00 PM
Jul 24
66 °FDrizzle. Fog.10 mph100%29.78 "Hg2 mi
10:00 PM68 °FLight rain. Fog.6 mph94%29.78 "Hg2 mi
9:50 PM68 °FDrizzle. Fog.6 mph100%29.78 "Hg2 mi
9:00 PM70 °FMostly cloudy.3 mph88%29.76 "Hg12 mi
8:00 PM72 °FMostly cloudy.6 mph88%29.76 "Hg15 mi
7:00 PM73 °FBroken clouds.7 mph78%29.75 "Hg15 mi
6:00 PM72 °FSprinkles. More clouds than sun.5 mph83%29.76 "Hg15 mi
5:51 PM73 °FSprinkles. More clouds than sun.6 mph78%29.76 "Hg15 mi
5:00 PM73 °FMostly cloudy.5 mph78%29.76 "Hg15 mi
4:00 PM75 °FOvercast.12 mph69%29.76 "Hg15 mi
3:00 PM75 °FOvercast.10 mph69%29.77 "Hg15 mi
2:00 PM75 °FMore clouds than sun.9 mph74%29.78 "Hg15 mi
1:00 PM75 °FPartly sunny.10 mph78%29.78 "Hg15 mi
12:00 PM68 °FFog.9 mph94%29.80 "Hg2 mi
11:48 AM68 °FFog.9 mph94%29.80 "Hg1 mi
11:00 AM68 °FFog.9 mph94%29.81 "Hg1 mi
10:00 AM68 °FLow clouds.12 mph88%29.80 "Hg12 mi
9:00 AM66 °FMostly cloudy.9 mph88%29.80 "Hg15 mi
8:00 AM63 °FFog.9 mph94%29.81 "Hg6 mi
7:00 AM61 °FFog.10 mph100%29.80 "Hg4 mi
6:00 AM61 °FFog.12 mph94%29.79 "Hg5 mi
5:00 AM61 °FMostly cloudy.9 mph94%29.79 "Hg10 mi
4:00 AM61 °FPassing clouds.9 mph94%29.78 "Hg12 mi
Weather by CustomWeather, © 2014

See weather overviewHow to use our weather pages